User: anonymous   Login
Location: Caltech
(34.1382°N, 118.1253°W)
Time: 02:18:52
(UTC-08:00)
Language:

SO-50 - Orbit

View from above orbital plane
View from above orbital plane
View from above satellite
View from above satellite

Ground track
Ground track

The orbit data is extracted from the following two-line orbital elements,

1 27607U 02058C   14325.56464659  .00001714  00000-0  24979-3 0  5811
2 27607 064.5557 112.4903 0065681 330.5334 029.2558 14.74143834640676
Epoch (UTC): 21 November 2014 13:33:05
Eccentricity: 0.0065681
inclination: 64.5557°
perigee height: 602 km
apogee height: 694 km
right ascension of ascending node: 112.4903°
argument of perigee: 330.5334°
revolutions per day: 14.74143834
mean anomaly at epoch: 29.2558°
orbit number at epoch: 64067

The dashed part of the orbit path shows where the satellite is in the earth's shadow,  

DLR